Theta_e
315 318 323 327 329 326 326 323 322 321 321 321 321 321 321 322 323 324 319 320 324 316 315 315 315 315 315 316 316 321 326 328 329 329 329 330 330 330 329 328 328 328 328 329 330 330 330 328 326
317 320 324 327 327 329 326 321 321 320 320 319 319 320 320 320 318 317 316 318 317 315 314 314 314 314 314 314 314 314 316 319 321 322 324 325 325 326 325 324 324 323 323 324 324 323 323 323 324
317 320 326 327 326 325 324 322 319 319 319 319 319 319 319 318 316 316 316 317 316 314 314 314 314 313 313 313 313 313 313 313 313 313 314 314 315 315 314 314 314 314 314 315 316 317 320 322 323
322 322 322 320 322 322 322 321 319 318 318 318 319 318 317 317 316 316 316 316 315 314 313 313 312 310 310 309 309 309 309 310 310 310 311 310 311 310 310 310 309 308 308 309 309 310 311 312 312
319 323 324 323 322 321 320 320 320 318 318 318 317 318 317 315 315 315 316 316 315 313 313 311 310 309 308 308 308 308 308 308 307 306 305 304 303 303 303 303 303 303 303 303 303 303 303 303 304
321 321 323 323 323 321 320 320 320 320 319 318 317 317 317 317 315 314 315 316 315 313 312 310 309 308 307 307 307 307 306 305 304 303 302 302 302 303 303 303 303 303 303 303 303 303 303 303 303
322 326 324 323 322 322 321 320 319 319 319 318 318 318 316 316 315 314 314 315 315 313 311 309 309 307 307 306 306 305 303 303 302 302 302 302 302 302 302 302 302 302 302 302 303 302 302 303 303
320 321 322 323 322 322 320 319 319 320 319 319 318 316 316 318 315 313 313 313 313 312 311 310 309 307 306 306 305 304 303 302 301 301 301 302 302 302 302 303 303 304 305 305 305 304 303 303 302
319 320 322 324 323 322 318 318 317 318 317 317 317 317 316 316 315 312 311 311 311 311 310 309 309 308 307 306 305 303 302 301 301 301 301 302 302 303 303 304 305 306 306 306 305 303 302 302 301
321 324 325 321 320 320 319 318 318 316 316 317 316 315 315 314 314 313 313 312 311 311 310 309 308 308 307 306 306 305 303 302 301 301 301 302 302 302 303 304 304 305 305 304 302 301 300 300 300
320 321 321 320 320 318 318 318 318 316 315 317 317 316 315 313 312 312 312 312 312 311 309 309 308 308 306 306 305 304 303 302 301 301 301 301 302 302 303 303 304 304 304 303 302 300 299 299 299
320 320 320 320 318 317 317 318 318 317 317 318 318 318 318 316 315 313 312 312 311 309 309 308 308 308 306 305 304 304 302 301 301 301 301 301 302 302 302 303 303 303 303 302 301 300 299 298 298
319 319 319 319 317 316 316 316 315 317 317 317 317 317 317 317 316 315 313 311 310 309 308 308 307 307 306 305 303 303 302 301 300 300 300 301 301 301 302 303 303 303 302 301 300 299 298 297 297
318 318 317 318 317 316 315 316 316 316 317 317 318 317 316 316 315 314 312 311 310 308 307 308 307 307 306 304 303 303 301 300 300 300 300 300 301 301 302 302 302 302 301 300 299 298 297 297 297
317 315 316 317 317 316 317 314 314 316 317 317 317 317 316 315 314 314 314 312 311 309 307 307 307 306 305 304 303 302 301 300 299 300 300 300 300 301 301 301 301 300 299 299 298 296 296 296 295
316 316 317 319 317 315 315 315 316 318 317 317 316 316 316 316 315 313 312 311 310 308 307 306 306 306 305 303 303 302 301 299 299 299 299 299 300 300 300 300 300 299 299 298 298 296 296 295 294
317 317 317 319 318 314 313 315 318 318 317 316 316 315 316 316 315 314 313 311 310 308 307 306 306 305 304 302 301 300 300 298 298 298 299 298 299 299 299 299 299 298 298 297 297 295 294 294 293
318 317 317 317 316 315 314 313 314 317 316 316 317 317 316 316 316 315 313 312 310 308 307 305 304 304 303 301 301 300 299 298 298 298 298 298 299 299 299 298 298 298 297 297 295 293 293 292 292
317 317 317 317 317 315 314 315 315 316 316 317 317 317 317 317 316 315 314 312 310 308 306 304 304 303 303 302 301 300 300 299 298 297 297 297 298 298 298 298 298 298 297 296 293 292 292 292 291
316 316 316 316 315 314 314 315 315 314 315 316 316 316 316 316 315 315 314 312 310 308 306 304 304 304 304 303 302 300 299 298 297 296 296 297 297 298 297 297 297 296 296 294 293 292 292 291 290
315 315 315 315 315 312 313 312 313 313 314 315 315 315 315 315 314 315 314 312 310 307 306 305 305 304 304 303 300 298 297 296 296 296 296 296 297 297 297 297 296 295 294 293 291 291 290 289 289
314 314 315 315 314 315 313 314 314 314 313 312 314 315 316 315 315 314 314 312 311 309 306 305 304 304 303 303 301 299 299 299 299 299 297 296 296 296 296 296 296 295 293 292 291 290 289 287 288
315 312 313 314 315 315 315 314 313 313 312 312 311 316 316 314 315 314 314 313 311 308 306 305 303 303 303 303 301 300 299 297 298 297 295 295 295 295 295 295 295 294 293 292 291 289 289 287 287
310 312 312 312 311 313 313 314 313 312 312 313 311 315 314 313 313 313 312 311 309 307 306 305 304 304 302 302 301 300 300 297 296 296 295 294 294 295 295 295 294 293 292 291 290 289 288 287 286
311 314 315 316 313 315 312 313 314 313 311 310 310 314 313 313 313 311 310 310 308 308 307 305 305 305 304 303 302 301 300 297 296 296 296 294 294 294 295 294 294 293 291 290 289 288 288 287 286
310 313 315 315 313 315 314 313 313 313 312 313 313 314 313 312 312 311 311 311 309 308 308 307 308 306 305 304 303 301 299 297 296 295 294 294 293 293 294 294 293 292 290 289 289 288 288 286 286
312 311 313 314 307 311 313 312 312 311 310 310 311 312 311 311 311 310 310 310 309 309 310 309 308 307 305 305 302 301 298 297 296 295 294 293 293 293 293 293 292 290 289 289 288 288 287 286 286
308 309 312 312 310 310 312 310 313 314 313 309 309 309 311 311 310 310 310 309 309 309 308 308 307 307 306 304 303 301 298 297 295 294 293 293 292 292 292 292 291 290 289 288 288 287 286 286 285
306 308 308 310 313 312 312 313 309 314 313 311 308 311 312 311 311 311 311 310 309 309 309 309 308 307 305 303 301 300 298 297 295 293 292 292 291 291 292 291 290 288 288 288 287 286 286 285 284
308 310 309 311 312 310 312 315 310 310 312 310 309 312 311 311 311 311 310 310 309 310 309 308 307 306 305 303 300 299 297 296 294 293 292 291 291 291 291 290 289 288 288 287 286 286 285 284 284
Wind_Speed
4 2 2 3 2 3 5 5 5 5 1 5 5 4 2 9 2 3 10 18 15 11 10 9 8 8 6 5 5 6 5 5 6 7 7 7 8 8 10 9 9 9 9 9 9 9 11 12 13
4 2 3 5 2 4 3 8 5 7 8 7 3 5 2 3 1 5 11 18 16 13 10 9 7 5 4 4 4 4 5 6 8 8 9 10 10 10 10 11 11 11 11 12 13 14 15 15 14
2 2 3 3 4 6 3 4 9 12 9 6 4 3 2 4 2 6 8 18 16 13 10 8 6 5 5 4 4 4 5 6 7 8 9 10 10 11 11 12 13 13 14 15 16 16 17 16 16
4 2 5 2 9 9 4 3 20 11 3 4 1 3 3 8 9 9 12 19 18 15 11 8 7 7 5 4 3 2 2 2 2 3 4 5 6 7 8 10 11 11 12 13 14 16 17 18 19
1 5 3 6 10 4 5 5 15 8 10 10 8 4 4 8 14 8 14 20 17 15 12 11 9 5 4 3 2 2 2 2 2 3 4 4 5 6 7 8 9 11 12 14 15 15 16 17 17
5 4 3 6 5 5 3 4 8 13 12 11 9 6 5 10 13 13 16 18 18 16 13 12 11 9 8 6 5 4 3 3 3 4 4 4 4 5 6 7 8 9 10 11 13 14 15 16 17
3 3 6 10 8 4 6 8 8 10 11 10 5 4 5 13 13 15 16 18 18 17 16 15 14 12 10 8 6 4 3 3 3 3 3 3 4 5 6 7 8 10 13 15 16 17 17 17 17
4 2 6 5 5 5 5 8 4 10 7 9 15 6 6 16 16 16 18 19 20 19 19 18 15 14 11 9 7 5 4 4 3 3 2 2 2 3 6 8 11 14 15 17 18 19 18 18 18
3 3 5 8 1 0 7 5 7 8 5 11 12 11 8 9 15 17 20 21 23 23 23 22 19 17 14 11 8 7 7 6 5 5 4 4 3 5 7 9 11 12 14 16 17 19 19 19 19
5 3 5 3 6 3 8 10 7 3 11 13 15 17 18 17 19 20 23 24 25 25 26 25 22 20 17 14 12 10 9 9 8 7 6 5 4 5 7 8 10 11 13 14 15 15 16 17 17
6 5 1 4 4 4 7 10 14 8 8 16 21 25 25 24 24 25 25 25 25 26 26 27 25 23 20 18 15 14 13 12 11 10 8 7 7 8 9 10 11 12 14 15 16 16 16 16 16
5 16 16 4 3 3 4 5 10 23 22 5 13 20 27 29 28 29 29 28 28 28 28 28 28 26 22 21 18 18 17 15 15 13 11 10 10 11 11 12 12 13 15 17 18 17 17 16 16
8 11 14 11 9 11 12 16 10 23 25 27 25 20 20 27 29 28 28 28 29 30 30 30 29 28 25 23 22 21 18 18 16 15 13 12 12 12 12 12 12 14 16 18 19 19 18 17 17
4 11 17 12 16 11 7 8 11 17 17 27 27 29 27 29 32 30 32 33 33 33 33 33 31 30 28 26 25 23 21 20 18 17 15 14 13 13 12 12 13 14 17 18 20 21 22 21 22
6 7 10 16 18 5 9 9 15 39 18 14 20 31 32 31 32 36 34 35 34 35 35 36 33 31 31 29 28 26 24 22 21 19 18 16 15 13 12 12 13 15 16 19 21 22 22 23 23
4 5 4 3 14 9 10 14 12 21 24 29 23 23 28 33 34 36 34 35 33 34 38 38 35 33 33 31 30 28 26 25 24 22 20 18 16 13 13 13 14 15 17 20 22 22 23 24 25
9 7 10 8 14 8 10 10 3 5 11 14 20 22 26 33 36 35 35 35 34 36 39 39 37 35 34 33 31 31 28 27 25 23 21 19 17 15 14 14 15 16 17 18 20 21 23 24 26
7 10 9 10 8 8 7 17 14 19 10 19 28 29 32 36 37 36 36 35 36 37 39 39 37 35 34 34 33 33 30 28 28 25 25 22 21 18 16 15 15 16 17 18 20 21 21 23 27
13 15 16 20 8 9 15 17 18 24 19 23 31 34 34 38 37 34 37 36 35 38 41 40 39 37 36 38 38 37 34 32 31 29 28 26 23 20 17 17 16 16 17 18 20 21 21 22 27
8 12 17 16 8 9 11 13 12 10 20 27 30 32 38 36 26 27 34 37 37 40 42 41 40 37 38 40 39 36 34 34 31 30 30 28 25 21 19 18 18 17 17 18 19 21 21 21 23
18 13 19 17 12 5 4 7 12 12 27 34 37 38 40 37 27 25 33 37 36 39 43 42 40 37 38 40 39 38 35 34 35 35 34 31 28 24 21 20 19 18 18 19 20 21 20 20 21
21 9 10 11 7 9 9 7 8 7 9 10 26 34 40 30 21 27 33 36 36 37 40 40 40 38 38 40 41 44 44 43 41 37 34 32 30 27 23 20 19 19 19 19 20 21 19 19 22
15 5 4 4 6 6 7 7 7 11 9 12 11 30 38 17 16 25 29 35 33 33 37 40 40 39 39 40 42 44 44 41 36 35 35 34 31 27 24 21 20 20 19 21 22 21 19 19 23
4 1 4 3 2 8 12 12 8 8 9 6 8 25 30 19 13 16 23 26 30 32 35 39 39 39 40 41 41 44 43 43 41 41 38 35 32 29 26 23 21 20 21 22 22 21 21 21 23
3 4 3 3 2 11 12 13 17 5 8 10 11 31 11 13 13 16 21 27 32 34 36 38 40 40 41 42 43 44 43 43 44 43 40 37 34 31 27 25 23 22 22 22 22 23 23 23 25
8 9 6 7 5 17 5 8 6 9 14 24 28 36 15 16 16 17 21 24 30 33 35 37 40 41 42 42 42 43 43 43 45 46 43 38 35 31 28 26 24 23 22 23 24 25 25 25 27
5 7 3 3 1 4 11 11 6 7 11 11 21 13 16 16 17 17 20 24 27 30 31 34 39 41 42 41 41 42 43 44 47 47 43 39 35 32 30 27 25 24 23 24 25 26 26 27 30
3 1 2 2 2 8 21 10 15 7 17 11 8 10 17 16 16 16 17 23 26 27 28 32 38 42 42 42 41 41 41 43 47 47 44 41 36 33 30 27 25 24 24 25 26 27 27 29 32
3 4 5 2 5 7 14 12 3 5 6 9 10 14 14 11 14 15 15 21 23 23 26 33 38 42 45 45 43 42 41 43 46 47 43 40 36 33 29 27 25 25 25 26 27 28 28 30 32
8 11 11 9 11 4 6 26 7 4 4 8 7 13 13 12 13 15 16 18 19 26 31 35 38 42 46 46 44 43 43 42 45 45 43 40 36 32 29 26 25 25 25 26 27 27 28 31 33
Wind_Direction
188 166 30 309 266 206 257 164 75 109 104 77 341 73 55 61 352 191 179 183 184 183 187 184 185 182 192 205 221 223 239 249 261 273 280 277 283 289 291 296 294 292 296 299 304 306 307 309 316
197 100 2 288 250 264 301 101 150 151 82 111 22 45 25 84 63 163 164 173 178 184 198 183 187 190 198 216 235 254 256 262 271 278 279 281 286 288 290 292 294 296 295 295 297 299 299 304 305
173 129 269 209 234 256 18 92 124 80 111 137 144 193 352 105 187 181 187 180 180 197 201 196 186 193 201 202 219 240 253 258 266 273 278 283 283 283 284 286 289 292 292 291 292 294 296 296 295
101 265 268 256 270 293 36 58 111 117 119 186 130 172 191 183 182 214 192 182 192 201 194 197 191 185 180 175 183 183 196 239 260 266 268 277 284 291 297 303 306 306 303 303 304 304 301 299 297
81 269 257 224 249 240 95 329 129 161 160 179 177 169 204 201 222 221 192 190 197 206 198 194 192 193 205 212 211 239 266 276 284 282 297 301 305 307 309 311 314 318 319 318 315 311 310 307 306
261 247 274 255 295 100 90 184 173 182 174 139 182 254 194 233 226 210 194 199 204 211 206 198 200 206 208 206 217 228 239 261 281 297 303 308 311 323 332 332 334 332 331 329 326 327 324 323 321
260 281 258 284 308 293 169 159 220 209 181 177 192 210 196 223 227 212 203 209 213 214 213 209 210 214 213 214 217 222 235 250 269 280 300 323 337 346 350 352 349 350 349 343 340 338 334 329 325
286 280 271 260 262 335 110 156 209 245 230 190 207 225 207 234 222 207 206 213 216 218 219 221 219 223 223 222 218 220 237 245 244 241 246 272 308 338 351 356 355 353 347 338 331 326 322 320 319
250 278 267 269 301 218 122 203 197 227 216 198 209 226 241 225 210 206 208 216 217 220 222 223 223 227 227 224 223 224 229 232 233 239 253 278 323 339 348 352 351 346 336 329 323 318 317 316 317
221 230 259 25 353 287 172 217 201 217 228 227 226 232 236 235 226 218 219 221 223 225 223 225 225 226 228 228 228 230 236 241 244 252 271 281 299 319 326 326 322 322 322 323 321 317 314 312 312
219 230 216 314 272 298 287 222 242 192 250 226 227 226 239 235 230 229 231 233 232 231 227 227 225 226 224 228 226 230 234 238 242 247 251 262 278 291 297 301 304 310 319 323 323 320 317 316 316
262 248 262 294 286 259 247 275 252 230 235 264 239 230 237 232 236 236 234 233 231 230 233 228 224 226 224 226 224 227 229 229 233 236 240 252 263 271 279 287 294 303 314 324 328 327 323 320 320
221 267 280 263 255 254 258 260 255 259 252 257 256 252 241 236 240 244 242 238 232 230 232 232 227 225 224 226 227 228 229 230 231 233 240 249 258 268 278 285 294 307 317 326 330 330 327 323 323
358 291 286 273 231 230 230 258 238 259 259 246 241 246 239 241 243 243 240 234 228 230 230 234 229 225 224 224 227 230 230 231 232 235 238 246 255 265 274 284 297 308 318 325 329 331 331 331 330
287 301 267 243 229 234 219 273 231 252 238 233 236 239 245 242 242 243 244 238 231 227 229 233 231 224 223 223 227 227 228 229 232 235 239 246 255 263 272 285 297 309 319 328 333 333 332 331 330
227 227 278 230 183 165 147 270 228 257 234 232 240 241 241 244 247 244 244 241 233 227 227 231 231 225 223 222 226 228 228 228 230 232 237 242 249 256 268 281 296 310 322 331 333 331 328 328 328
223 252 236 263 180 136 178 255 264 187 203 220 237 247 252 254 254 246 242 236 234 228 228 229 230 225 222 221 224 227 227 228 231 236 241 245 251 259 270 283 296 310 321 326 325 323 325 327 326
222 231 248 251 195 186 205 251 266 250 236 255 263 259 253 251 255 253 239 234 231 229 230 231 230 226 221 221 222 226 227 228 232 235 238 241 246 253 265 279 293 304 313 314 318 320 321 324 326
256 267 270 270 257 177 231 240 252 262 253 256 265 264 261 261 265 253 243 226 226 225 226 228 227 226 221 221 222 225 227 228 231 233 237 239 244 250 262 273 283 292 299 308 314 312 317 326 327
272 271 266 277 294 211 249 253 254 264 268 259 258 268 266 265 259 247 233 222 222 224 223 225 230 228 227 227 228 230 230 230 234 234 236 239 243 249 259 269 278 286 295 303 307 306 316 324 330
248 245 259 264 285 221 319 268 254 252 252 259 263 261 266 264 254 240 222 217 219 221 224 227 231 230 228 229 227 228 226 229 230 232 236 238 241 245 254 265 274 283 290 298 302 305 309 316 324
263 231 257 266 278 256 161 282 222 226 230 228 246 262 269 267 263 226 218 216 224 229 227 227 228 230 229 231 229 229 231 229 235 239 238 237 239 243 249 258 269 277 286 291 294 297 303 306 312
265 171 220 268 261 302 252 281 227 202 233 243 238 253 266 275 259 213 220 226 231 226 223 223 225 228 230 231 231 232 234 235 237 236 234 236 239 241 247 257 266 274 281 285 288 292 298 300 301
129 115 218 233 211 255 207 214 241 203 212 223 232 251 262 254 224 215 221 224 224 222 220 220 221 225 228 231 234 235 236 234 232 232 232 235 238 240 247 256 263 270 274 278 284 290 295 296 296
179 143 279 287 191 252 187 221 239 182 177 191 212 244 203 209 220 214 212 215 217 219 218 220 222 223 228 232 235 236 237 234 236 238 236 234 235 239 246 254 261 266 270 277 284 288 291 294 297
187 179 173 237 219 274 229 255 247 214 231 217 215 250 235 213 225 222 222 223 219 218 223 224 224 224 228 232 235 237 237 235 236 239 236 236 238 242 246 253 261 267 272 277 281 285 291 294 297
183 211 198 249 130 307 240 262 305 254 238 218 226 198 197 219 228 231 231 232 227 224 231 233 230 229 231 234 234 237 236 236 236 237 235 235 236 239 244 251 258 263 268 275 280 286 291 295 298
201 200 123 219 256 241 275 282 273 197 237 219 225 219 233 246 236 235 233 234 233 238 244 243 238 236 234 233 235 239 237 237 237 236 234 234 235 237 243 250 256 262 267 273 279 286 293 296 296
155 237 232 246 192 230 271 271 303 161 149 196 222 230 245 223 225 231 240 243 243 244 249 247 241 239 235 233 234 237 237 238 237 236 234 232 233 236 242 249 255 261 268 275 281 288 293 295 296
216 224 185 221 237 230 235 264 153 120 138 149 191 200 201 229 236 231 240 255 262 272 259 252 250 245 242 235 234 236 237 237 237 236 231 229 231 235 241 248 255 263 270 277 284 289 294 294 295